DLH806 EDDH-LOWW

Flight info

Callsign DLH806
Flight time 1h 10m
Altitude 37000
Route RAMAR6G RAMAR Z998 RATMO DCT HDO DCT EVIKU DCT BITSI DCT MIKOV MIKOV8W
Aircraft A320/M-SDE3FGHIRWY/LB1

Departure

Time 2026-04-26 17:48
Airport Hamburg Helmut Schmidt Airport (EDDH)

Arrival

Time 2026-04-26 18:59
Airport Vienna International Airport (LOWW)
Time Latitude Longitude Altitude Speed Heading
2026-04-26 17:06 53.63247 10.00358 46 ft 0 kts 88°
2026-04-26 17:39 53.63247 10.00353 46 ft 3 kts 87°
2026-04-26 17:39 53.63245 10.00309 46 ft 4 kts 84°
2026-04-26 17:39 53.63244 10.00265 46 ft 4 kts 104°
2026-04-26 17:40 53.63251 10.00242 46 ft 1 kts 176°
2026-04-26 17:40 53.63252 10.00241 46 ft 0 kts 176°
2026-04-26 17:43 53.63245 10.00242 46 ft 5 kts 176°
2026-04-26 17:44 53.63182 10.00213 45 ft 12 kts 198°
2026-04-26 17:44 53.63093 10.00190 45 ft 14 kts 187°
2026-04-26 17:44 53.63002 10.00111 46 ft 12 kts 212°
2026-04-26 17:44 53.62927 10.00018 46 ft 13 kts 243°
2026-04-26 17:45 53.62902 9.99931 45 ft 0 kts 242°
2026-04-26 17:46 53.62901 9.99927 45 ft 2 kts 242°
2026-04-26 17:46 53.62868 9.99816 47 ft 15 kts 249°
2026-04-26 17:47 53.62904 9.99716 47 ft 0 kts 331°
2026-04-26 17:47 53.62999 9.99632 46 ft 46 kts 332°
2026-04-26 17:47 53.63491 9.99194 46 ft 110 kts 332°
2026-04-26 17:48 53.64318 9.98481 116 ft 151 kts 332°
2026-04-26 17:48 53.65265 9.97692 823 ft 150 kts 332°
2026-04-26 17:48 53.66191 9.96914 1661 ft 147 kts 332°
2026-04-26 17:48 53.67126 9.96115 2081 ft 162 kts 332°
2026-04-26 17:49 53.68207 9.95180 2328 ft 186 kts 332°
2026-04-26 17:49 53.69535 9.94652 2657 ft 208 kts 358°
2026-04-26 17:49 53.71008 9.94665 3243 ft 215 kts 358°
2026-04-26 17:49 53.72519 9.94851 3837 ft 224 kts 14°
2026-04-26 17:50 53.73846 9.96225 4432 ft 238 kts 47°
2026-04-26 17:50 53.74730 9.98749 4880 ft 263 kts 63°
2026-04-26 17:50 53.75549 10.01621 5000 ft 275 kts 63°
2026-04-26 17:50 53.76381 10.04546 5019 ft 277 kts 64°
2026-04-26 17:51 53.77219 10.07486 5837 ft 278 kts 63°
2026-04-26 17:51 53.78061 10.10439 6848 ft 280 kts 62°
2026-04-26 17:51 53.78744 10.13540 7763 ft 286 kts 78°
2026-04-26 17:51 53.78681 10.16934 8643 ft 295 kts 103°
2026-04-26 17:52 53.77768 10.20065 9506 ft 302 kts 124°
2026-04-26 17:52 53.76538 10.22994 10381 ft 307 kts 124°
2026-04-26 17:52 53.75247 10.26032 10727 ft 330 kts 124°
2026-04-26 17:52 53.73864 10.29288 10974 ft 353 kts 124°
2026-04-26 17:53 53.72404 10.32729 11457 ft 365 kts 124°
2026-04-26 17:53 53.70915 10.36238 12142 ft 370 kts 124°
2026-04-26 17:53 53.69408 10.39799 12835 ft 375 kts 124°
2026-04-26 17:54 53.66339 10.47049 14227 ft 385 kts 125°
2026-04-26 17:54 53.64772 10.50741 14831 ft 389 kts 125°
2026-04-26 17:54 53.63188 10.54463 15452 ft 393 kts 125°
2026-04-26 17:54 53.61605 10.58180 16078 ft 396 kts 125°
2026-04-26 17:55 53.59985 10.61982 16683 ft 400 kts 125°
2026-04-26 17:55 53.58351 10.65812 17283 ft 404 kts 126°
2026-04-26 17:55 53.56701 10.69666 17902 ft 407 kts 126°
2026-04-26 17:55 53.55032 10.73563 18526 ft 411 kts 126°
2026-04-26 17:56 53.53352 10.77481 19072 ft 415 kts 126°
2026-04-26 17:56 53.49940 10.85415 20154 ft 422 kts 126°
2026-04-26 17:57 53.46467 10.93456 21243 ft 429 kts 126°
2026-04-26 17:57 53.44707 10.97529 21737 ft 433 kts 126°
2026-04-26 17:57 53.42930 11.01636 22224 ft 437 kts 126°
2026-04-26 17:57 53.41138 11.05775 22706 ft 440 kts 126°
2026-04-26 17:58 53.35681 11.18304 23301 ft 445 kts 126°
2026-04-26 17:59 53.32041 11.26615 23300 ft 445 kts 127°
2026-04-26 17:59 53.30208 11.30782 23300 ft 445 kts 127°
2026-04-26 17:59 53.28373 11.34953 23305 ft 445 kts 127°
2026-04-26 17:59 53.26456 11.39004 23297 ft 445 kts 133°
2026-04-26 18:00 53.24244 11.42605 23301 ft 444 kts 139°
2026-04-26 18:00 53.21970 11.46102 23301 ft 444 kts 139°
2026-04-26 18:00 53.19677 11.49614 23598 ft 448 kts 139°
2026-04-26 18:00 53.17377 11.53128 24089 ft 450 kts 139°
2026-04-26 18:01 53.15064 11.56659 24544 ft 452 kts 139°
2026-04-26 18:01 53.13524 11.59008 24832 ft 453 kts 139°
2026-04-26 18:01 53.11192 11.62572 25248 ft 456 kts 139°
2026-04-26 18:01 53.08850 11.66148 25651 ft 458 kts 139°
2026-04-26 18:02 53.05726 11.70914 26166 ft 462 kts 139°
2026-04-26 18:02 53.04926 11.72134 26297 ft 463 kts 139°
2026-04-26 18:02 53.00961 11.78160 26951 ft 467 kts 139°
2026-04-26 18:02 52.99373 11.80695 27201 ft 470 kts 134°
2026-04-26 18:03 52.97274 11.84901 27585 ft 474 kts 128°
2026-04-26 18:03 52.95313 11.89221 27961 ft 476 kts 128°
2026-04-26 18:03 52.93311 11.93619 28373 ft 479 kts 128°
2026-04-26 18:03 52.91295 11.98026 28758 ft 481 kts 128°
2026-04-26 18:04 52.89263 12.02448 29120 ft 484 kts 128°
2026-04-26 18:04 52.87214 12.06893 29498 ft 486 kts 128°
2026-04-26 18:04 52.85155 12.11351 29863 ft 489 kts 128°
2026-04-26 18:05 52.81006 12.20342 30644 ft 492 kts 128°
2026-04-26 18:05 52.78931 12.24845 31083 ft 492 kts 128°
2026-04-26 18:05 52.76857 12.29346 31532 ft 492 kts 128°
2026-04-26 18:05 52.74786 12.33825 31997 ft 491 kts 129°
2026-04-26 18:06 52.72703 12.38302 32474 ft 490 kts 129°
2026-04-26 18:06 52.70439 12.42465 32941 ft 487 kts 138°
2026-04-26 18:06 52.67862 12.46048 33403 ft 483 kts 147°
2026-04-26 18:06 52.65103 12.49208 33870 ft 481 kts 148°
2026-04-26 18:07 52.62348 12.52339 34351 ft 480 kts 148°
2026-04-26 18:07 52.59597 12.55461 34754 ft 480 kts 148°
2026-04-26 18:07 52.56850 12.58579 35137 ft 479 kts 148°
2026-04-26 18:07 52.55033 12.60640 35383 ft 479 kts 148°
2026-04-26 18:08 52.51355 12.64805 35853 ft 479 kts 148°
2026-04-26 18:08 52.48615 12.67908 36211 ft 479 kts 148°
2026-04-26 18:08 52.45871 12.71013 36563 ft 479 kts 148°
2026-04-26 18:08 52.43125 12.74116 36913 ft 479 kts 148°
2026-04-26 18:09 52.40415 12.77177 37222 ft 479 kts 148°
2026-04-26 18:09 52.34912 12.83372 37307 ft 480 kts 148°
2026-04-26 18:10 52.29403 12.89549 37292 ft 480 kts 148°
2026-04-26 18:10 52.23894 12.95714 37304 ft 480 kts 148°
2026-04-26 18:11 52.18374 13.01862 37311 ft 479 kts 148°
2026-04-26 18:11 52.12862 13.07972 37310 ft 480 kts 148°
2026-04-26 18:12 52.07332 13.14080 37309 ft 480 kts 148°
2026-04-26 18:12 52.01811 13.20182 37291 ft 480 kts 148°
2026-04-26 18:13 51.96326 13.26230 37313 ft 479 kts 148°
2026-04-26 18:13 51.90767 13.32330 37325 ft 479 kts 148°
2026-04-26 18:14 51.85277 13.38327 37311 ft 479 kts 148°
2026-04-26 18:14 51.79756 13.44362 37319 ft 479 kts 148°
2026-04-26 18:15 51.74221 13.50396 37299 ft 480 kts 148°
2026-04-26 18:15 51.68684 13.56392 37318 ft 479 kts 148°
2026-04-26 18:16 51.63147 13.62372 37325 ft 479 kts 148°
2026-04-26 18:16 51.54843 13.71322 37325 ft 479 kts 148°
2026-04-26 18:17 51.49299 13.77268 37324 ft 479 kts 149°
2026-04-26 18:17 51.43753 13.83196 37306 ft 479 kts 148°
2026-04-26 18:18 51.38210 13.89099 37319 ft 478 kts 148°
2026-04-26 18:18 51.32667 13.94997 37317 ft 478 kts 148°
2026-04-26 18:19 51.27168 14.00840 37317 ft 477 kts 148°
2026-04-26 18:19 51.21631 14.06693 37317 ft 477 kts 149°
2026-04-26 18:20 51.16076 14.12542 37306 ft 477 kts 148°
2026-04-26 18:20 51.11472 14.17389 37314 ft 477 kts 148°
2026-04-26 18:21 51.05000 14.24174 37323 ft 476 kts 149°
2026-04-26 18:21 50.99463 14.29948 37321 ft 476 kts 149°
2026-04-26 18:22 50.93846 14.35496 37311 ft 474 kts 156°
2026-04-26 18:22 50.87699 14.38804 37298 ft 467 kts 170°
2026-04-26 18:23 50.81329 14.41143 37299 ft 467 kts 170°
2026-04-26 18:23 50.75034 14.43473 37300 ft 467 kts 170°
2026-04-26 18:24 50.68701 14.45827 37305 ft 467 kts 170°
2026-04-26 18:24 50.62366 14.48168 37301 ft 467 kts 170°
2026-04-26 18:25 50.56037 14.50505 37308 ft 466 kts 170°
2026-04-26 18:25 50.49740 14.52972 37316 ft 468 kts 164°
2026-04-26 18:26 50.43953 14.57730 37305 ft 474 kts 144°
2026-04-26 18:26 50.39103 14.64780 37285 ft 476 kts 137°
2026-04-26 18:27 50.34345 14.71991 37288 ft 476 kts 137°
2026-04-26 18:27 50.29570 14.79169 37289 ft 476 kts 137°
2026-04-26 18:28 50.24823 14.86286 37295 ft 476 kts 137°
2026-04-26 18:28 50.20047 14.93455 37287 ft 477 kts 137°
2026-04-26 18:29 50.15256 15.00634 37286 ft 477 kts 138°
2026-04-26 18:29 50.10458 15.07787 37286 ft 477 kts 138°
2026-04-26 18:30 50.05649 15.14938 37285 ft 478 kts 138°
2026-04-26 18:30 50.00832 15.22079 37297 ft 478 kts 138°
2026-04-26 18:31 49.96014 15.29214 37282 ft 478 kts 138°
2026-04-26 18:31 49.91191 15.36338 37284 ft 479 kts 138°
2026-04-26 18:32 49.86377 15.43419 37282 ft 479 kts 138°
2026-04-26 18:32 49.81534 15.50523 37272 ft 479 kts 138°
2026-04-26 18:33 49.76679 15.57615 37284 ft 479 kts 139°
2026-04-26 18:33 49.71832 15.64682 37285 ft 479 kts 139°
2026-04-26 18:34 49.66977 15.71735 37246 ft 480 kts 139°
2026-04-26 18:34 49.64545 15.75263 36980 ft 479 kts 139°
2026-04-26 18:34 49.62115 15.78784 36717 ft 479 kts 139°
2026-04-26 18:35 49.59713 15.82253 36462 ft 479 kts 139°
2026-04-26 18:35 49.57279 15.85763 36207 ft 480 kts 139°
2026-04-26 18:35 49.54841 15.89277 35937 ft 480 kts 139°
2026-04-26 18:35 49.52397 15.92799 35689 ft 481 kts 139°
2026-04-26 18:36 49.49953 15.96313 35422 ft 481 kts 139°
2026-04-26 18:36 49.47486 15.99851 34567 ft 488 kts 139°
2026-04-26 18:36 49.44981 16.03442 33526 ft 495 kts 139°
2026-04-26 18:36 49.42448 16.07069 32488 ft 500 kts 139°
2026-04-26 18:37 49.39887 16.10731 31434 ft 505 kts 139°
2026-04-26 18:37 49.37319 16.14396 30311 ft 512 kts 139°
2026-04-26 18:37 49.34708 16.18116 29505 ft 508 kts 139°
2026-04-26 18:37 49.32094 16.21707 28757 ft 501 kts 144°
2026-04-26 18:38 49.29246 16.24700 28089 ft 491 kts 153°
2026-04-26 18:38 49.26232 16.27041 27400 ft 483 kts 158°
2026-04-26 18:38 49.23224 16.29260 26750 ft 476 kts 157°
2026-04-26 18:38 49.20255 16.31459 26080 ft 471 kts 157°
2026-04-26 18:39 49.17319 16.33635 25435 ft 466 kts 157°
2026-04-26 18:39 49.14385 16.35608 25016 ft 452 kts 166°
2026-04-26 18:39 49.11416 16.36771 24919 ft 432 kts 170°
2026-04-26 18:39 49.08549 16.37826 24826 ft 417 kts 170°
2026-04-26 18:40 49.05757 16.38851 24373 ft 413 kts 171°
2026-04-26 18:40 49.02917 16.39875 23374 ft 424 kts 170°
2026-04-26 18:40 49.00038 16.40905 22579 ft 425 kts 170°
2026-04-26 18:40 48.97167 16.41932 21950 ft 422 kts 170°
2026-04-26 18:41 48.94315 16.42954 21351 ft 420 kts 169°
2026-04-26 18:41 48.91483 16.43967 20797 ft 417 kts 169°
2026-04-26 18:41 48.88657 16.44976 20202 ft 415 kts 169°
2026-04-26 18:41 48.85887 16.45964 19629 ft 413 kts 169°
2026-04-26 18:42 48.83095 16.46959 19074 ft 411 kts 169°
2026-04-26 18:42 48.80319 16.47944 18523 ft 409 kts 169°
2026-04-26 18:42 48.77555 16.48923 17875 ft 406 kts 169°
2026-04-26 18:42 48.74820 16.49894 17318 ft 402 kts 169°
2026-04-26 18:43 48.72108 16.50860 16755 ft 398 kts 169°
2026-04-26 18:43 48.69421 16.51815 16184 ft 395 kts 169°
2026-04-26 18:43 48.66758 16.52756 15621 ft 392 kts 169°
2026-04-26 18:43 48.64115 16.53689 15067 ft 388 kts 169°
2026-04-26 18:44 48.61492 16.54613 14541 ft 385 kts 169°
2026-04-26 18:44 48.58889 16.55531 14005 ft 382 kts 169°
2026-04-26 18:44 48.56310 16.56443 13413 ft 379 kts 169°
2026-04-26 18:44 48.53752 16.57344 12820 ft 376 kts 169°
2026-04-26 18:45 48.51211 16.58237 12267 ft 373 kts 169°
2026-04-26 18:45 48.48693 16.59120 11722 ft 369 kts 169°
2026-04-26 18:45 48.46194 16.59993 11198 ft 366 kts 169°
2026-04-26 18:45 48.43728 16.60856 10694 ft 363 kts 169°
2026-04-26 18:46 48.41271 16.61718 10167 ft 361 kts 169°
2026-04-26 18:46 48.39655 16.62284 9876 ft 357 kts 169°
2026-04-26 18:46 48.36571 16.63371 9686 ft 329 kts 169°
2026-04-26 18:46 48.34405 16.64137 9477 ft 311 kts 169°
2026-04-26 18:47 48.32313 16.64870 9124 ft 307 kts 170°
2026-04-26 18:47 48.30912 16.65358 8928 ft 305 kts 170°
2026-04-26 18:47 48.28878 16.66065 8588 ft 303 kts 171°
2026-04-26 18:47 48.26827 16.66774 8251 ft 302 kts 171°
2026-04-26 18:48 48.24778 16.67481 7846 ft 303 kts 171°
2026-04-26 18:48 48.22717 16.68193 7448 ft 304 kts 171°
2026-04-26 18:48 48.20658 16.68904 7078 ft 304 kts 171°
2026-04-26 18:48 48.18601 16.69617 6713 ft 303 kts 171°
2026-04-26 18:49 48.16543 16.70334 6327 ft 303 kts 171°
2026-04-26 18:49 48.14492 16.71046 5943 ft 303 kts 170°
2026-04-26 18:49 48.12445 16.71756 5556 ft 302 kts 169°
2026-04-26 18:49 48.10402 16.72464 5162 ft 301 kts 168°
2026-04-26 18:50 48.08366 16.73170 4784 ft 299 kts 167°
2026-04-26 18:50 48.06367 16.73864 4387 ft 290 kts 167°
2026-04-26 18:50 48.04430 16.74534 4002 ft 282 kts 166°
2026-04-26 18:50 48.02537 16.75184 3617 ft 276 kts 166°
2026-04-26 18:51 48.00682 16.75822 3236 ft 273 kts 166°
2026-04-26 18:51 47.98838 16.76457 2996 ft 269 kts 166°
2026-04-26 18:51 47.97059 16.77067 3001 ft 255 kts 166°
2026-04-26 18:51 47.95351 16.77298 3008 ft 240 kts 190°
2026-04-26 18:52 47.93905 16.76305 2998 ft 222 kts 225°
2026-04-26 18:52 47.93142 16.74464 3014 ft 202 kts 258°
2026-04-26 18:52 47.92857 16.72477 3014 ft 196 kts 264°
2026-04-26 18:52 47.92672 16.70477 3002 ft 192 kts 273°
2026-04-26 18:53 47.93035 16.68650 3015 ft 183 kts 307°
2026-04-26 18:53 47.93808 16.67143 3016 ft 183 kts 314°
2026-04-26 18:53 47.94657 16.65701 3013 ft 185 kts 319°
2026-04-26 18:53 47.95698 16.64689 3028 ft 171 kts 343°
2026-04-26 18:54 47.96757 16.64229 2983 ft 149 kts 347°
2026-04-26 18:54 47.97715 16.63828 2859 ft 140 kts 347°
2026-04-26 18:54 47.98636 16.63442 2700 ft 136 kts 348°
2026-04-26 18:54 47.99520 16.63070 2538 ft 131 kts 348°
2026-04-26 18:55 48.00392 16.62707 2339 ft 129 kts 348°
2026-04-26 18:55 48.01257 16.62351 2098 ft 129 kts 347°
2026-04-26 18:55 48.02114 16.61963 1948 ft 129 kts 347°
2026-04-26 18:55 48.02978 16.61575 1802 ft 130 kts 347°
2026-04-26 18:56 48.03845 16.61223 1619 ft 128 kts 349°
2026-04-26 18:56 48.04705 16.60878 1447 ft 128 kts 348°
2026-04-26 18:56 48.05567 16.60516 1274 ft 129 kts 347°
2026-04-26 18:56 48.06426 16.60162 1106 ft 127 kts 346°
2026-04-26 18:57 48.07287 16.59793 933 ft 129 kts 346°
2026-04-26 18:57 48.07864 16.59549 821 ft 131 kts 346°
2026-04-26 18:57 48.09052 16.59049 637 ft 131 kts 347°
2026-04-26 18:57 48.09795 16.58747 624 ft 87 kts 344°
2026-04-26 18:58 48.10238 16.58555 623 ft 53 kts 344°
2026-04-26 18:58 48.10605 16.58408 610 ft 56 kts 343°
2026-04-26 18:58 48.11022 16.58234 611 ft 64 kts 343°
2026-04-26 18:58 48.11444 16.58050 613 ft 62 kts 343°
2026-04-26 18:59 48.11817 16.57875 602 ft 35 kts 334°
2026-04-26 18:59 48.11852 16.57731 616 ft 9 kts 273°
2026-04-26 18:59 48.11853 16.57712 608 ft 0 kts 274°
2026-04-26 19:00 48.11853 16.57711 616 ft 1 kts 274°
2026-04-26 19:00 48.11851 16.57635 603 ft 13 kts 259°
2026-04-26 19:00 48.11821 16.57480 602 ft 18 kts 255°
2026-04-26 19:00 48.11810 16.57415 602 ft 0 kts 255°
2026-04-26 19:01 48.11808 16.57402 602 ft 2 kts 256°
2026-04-26 19:01 48.11824 16.57310 603 ft 18 kts 294°
2026-04-26 19:01 48.11870 16.57109 601 ft 21 kts 296°
2026-04-26 19:01 48.11901 16.57001 600 ft 9 kts 294°
2026-04-26 19:02 48.11929 16.56913 599 ft 8 kts 289°
2026-04-26 19:02 48.11915 16.56895 600 ft 0 kts 197°
2026-04-26 19:02 48.11910 16.56886 600 ft 2 kts 227°
2026-04-26 19:02 48.11888 16.56837 600 ft 13 kts 224°
2026-04-26 19:03 48.11874 16.56821 600 ft 0 kts 210°